| time (UTC) | temp F | wind direction | speed knots | gust knots | rain 1hr in | rain 24hr in | rain mn in | humidity % | barometer mb |
| 20260506124506 | 66 | 207 | 5.2 | 7.0 | 0.00 | 0.00 | 0.00 | 77 | 991.3 |
| 20260506123005 | 66 | 207 | 5.2 | 7.0 | 0.00 | 0.00 | 0.00 | 79 | 991.4 |
| 20260506121505 | 66 | 207 | 5.2 | 7.0 | 0.00 | 0.00 | 0.00 | 78 | 991.7 |
| 20260506120005 | 65 | 207 | 5.2 | 7.0 | 0.00 | 0.00 | 0.00 | 79 | 991.8 |
| 20260506114505 | 65 | 207 | 5.2 | 7.0 | 0.00 | 0.00 | 0.00 | 79 | 991.8 |
| 20260506113005 | 66 | 207 | 5.2 | 7.0 | 0.00 | 0.00 | 0.00 | 78 | 991.7 |
| 20260506110005 | 65 | 207 | 5.2 | 7.0 | 0.00 | 0.00 | 0.00 | 79 | 991.6 |
| 20260506103005 | 65 | 207 | 5.2 | 7.0 | 0.00 | 0.01 | 0.00 | 79 | 991.6 |
| 20260506101505 | 65 | 207 | 5.2 | 7.0 | 0.00 | 0.01 | 0.00 | 79 | 991.5 |
| 20260506100005 | 65 | 207 | 5.2 | 7.0 | 0.00 | 0.01 | 0.00 | 78 | 991.4 |
| 20260506094505 | 65 | 207 | 5.2 | 7.0 | 0.00 | 0.01 | 0.00 | 78 | 991.2 |
| 20260506091505 | 65 | 207 | 5.2 | 7.0 | 0.00 | 0.01 | 0.00 | 77 | 991.3 |
| 20260506090006 | 65 | 207 | 5.2 | 7.0 | 0.00 | 0.01 | 0.00 | 77 | 991.4 |
| 20260506084505 | 64 | 207 | 5.2 | 7.0 | 0.00 | 0.01 | 0.00 | 77 | 991.7 |
| 20260506083005 | 65 | 207 | 5.2 | 7.0 | 0.00 | 0.01 | 0.00 | 74 | 991.7 |
| 20260506081505 | 66 | 207 | 5.2 | 7.0 | 0.00 | 0.01 | 0.00 | 72 | 991.8 |
| 20260506073005 | 67 | 207 | 5.2 | 7.0 | 0.00 | 0.01 | 0.00 | 67 | 991.9 |
| 20260506071504 | 67 | 207 | 5.2 | 7.0 | 0.00 | 0.01 | 0.00 | 66 | 991.7 |
| 20260506061505 | 68 | 207 | 5.2 | 7.0 | 0.00 | 0.01 | 0.00 | 64 | 992.1 |
| 20260506043006 | 70 | 207 | 5.2 | 7.0 | 0.00 | 0.01 | 0.00 | 61 | 992.5 |
| 20260506041505 | 70 | 207 | 5.2 | 7.0 | 0.00 | 0.01 | 0.00 | 61 | 992.5 |
| 20260506040006 | 70 | 207 | 5.2 | 7.0 | 0.00 | 0.01 | 0.00 | 59 | 992.4 |
| 20260506034505 | 71 | 207 | 5.2 | 7.0 | 0.00 | 0.01 | 0.01 | 56 | 992.3 |
| 20260506033006 | 71 | 207 | 5.2 | 7.0 | 0.00 | 0.01 | 0.01 | 55 | 992.3 |
| 20260506031506 | 72 | 207 | 5.2 | 7.0 | 0.00 | 0.01 | 0.01 | 53 | 992.1 |
| 20260506030005 | 72 | 207 | 5.2 | 7.0 | 0.00 | 0.01 | 0.01 | 51 | 992.0 |
| 20260506024505 | 73 | 207 | 5.2 | 7.0 | 0.00 | 0.01 | 0.01 | 50 | 992.0 |
| 20260506023005 | 73 | 207 | 5.2 | 7.0 | 0.00 | 0.01 | 0.01 | 50 | 992.0 |
| 20260506020006 | 73 | 207 | 5.2 | 7.0 | 0.00 | 0.01 | 0.01 | 50 | 991.9 |
| 20260506014505 | 73 | 207 | 5.2 | 7.0 | 0.00 | 0.01 | 0.01 | 49 | 991.9 |
| 20260506013007 | 73 | 207 | 5.2 | 7.0 | 0.00 | 0.01 | 0.01 | 49 | 991.9 |
| 20260506010005 | 75 | 207 | 5.2 | 7.0 | 0.00 | 0.01 | 0.01 | 45 | 991.3 |
| 20260506004506 | 75 | 207 | 5.2 | 7.0 | 0.00 | 0.01 | 0.01 | 43 | 991.2 |
| 20260506003005 | 75 | 207 | 5.2 | 7.0 | 0.00 | 0.01 | 0.01 | 43 | 991.3 |
| 20260506001505 | 75 | 207 | 5.2 | 7.0 | 0.00 | 0.01 | 0.01 | 43 | 991.1 |
| 20260506000006 | 76 | 207 | 5.2 | 7.0 | 0.00 | 0.01 | 0.01 | 42 | 991.0 |
| 20260505234505 | 76 | 207 | 5.2 | 7.0 | 0.00 | 0.01 | 0.01 | 42 | 990.8 |
| 20260505233006 | 76 | 207 | 5.2 | 7.0 | 0.00 | 0.01 | 0.01 | 42 | 990.8 |
| 20260505231505 | 77 | 207 | 5.2 | 7.0 | 0.00 | 0.01 | 0.01 | 42 | 990.8 |
| 20260505230005 | 77 | 207 | 5.2 | 7.0 | 0.00 | 0.01 | 0.01 | 41 | 990.6 |
| 20260505224505 | 78 | 207 | 5.2 | 7.0 | 0.00 | 0.01 | 0.01 | 41 | 990.5 |
| 20260505223006 | 78 | 207 | 5.2 | 7.0 | 0.00 | 0.01 | 0.01 | 40 | 990.4 |
| 20260505221506 | 79 | 207 | 5.2 | 7.0 | 0.00 | 0.01 | 0.01 | 40 | 990.2 |
| 20260505220005 | 80 | 207 | 5.2 | 7.0 | 0.00 | 0.01 | 0.01 | 38 | 990.1 |
| 20260505214506 | 81 | 207 | 5.2 | 7.0 | 0.00 | 0.01 | 0.01 | 37 | 989.9 |
| 20260505213006 | 82 | 207 | 5.2 | 7.0 | 0.00 | 0.01 | 0.01 | 36 | 989.8 |
| 20260505211506 | 83 | 207 | 5.2 | 7.0 | 0.00 | 0.01 | 0.01 | 36 | 989.8 |
| 20260505210006 | 83 | 207 | 5.2 | 7.0 | 0.00 | 0.01 | 0.01 | 36 | 989.4 |
| 20260505204505 | 83 | 207 | 5.2 | 7.0 | 0.00 | 0.01 | 0.01 | 35 | 989.4 |
| 20260505203005 | 83 | 207 | 5.2 | 7.0 | 0.00 | 0.01 | 0.01 | 35 | 989.5 |
| 20260505200005 | 83 | 207 | 5.2 | 7.0 | 0.00 | 0.01 | 0.01 | 35 | 989.8 |
| 20260505194505 | 84 | 207 | 5.2 | 7.0 | 0.00 | 0.01 | 0.01 | 37 | 990.0 |
| 20260505193006 | 84 | 207 | 5.2 | 7.0 | 0.00 | 0.01 | 0.01 | 37 | 990.0 |
| 20260505191507 | 84 | 207 | 5.2 | 7.0 | 0.00 | 0.01 | 0.01 | 39 | 990.1 |
| 20260505190005 | 85 | 207 | 5.2 | 7.0 | 0.00 | 0.01 | 0.01 | 38 | 990.3 |
| 20260505184506 | 84 | 207 | 5.2 | 7.0 | 0.00 | 0.01 | 0.01 | 37 | 990.5 |
| 20260505183006 | 84 | 207 | 5.2 | 7.0 | 0.00 | 0.01 | 0.01 | 37 | 990.7 |
| 20260505181505 | 83 | 207 | 5.2 | 7.0 | 0.00 | 0.01 | 0.01 | 42 | 991.1 |
| 20260505180005 | 83 | 207 | 5.2 | 7.0 | 0.00 | 0.01 | 0.01 | 42 | 991.1 |
| 20260505174505 | 83 | 207 | 5.2 | 7.0 | 0.00 | 0.01 | 0.01 | 43 | 991.1 |
| 20260505173005 | 82 | 207 | 5.2 | 7.0 | 0.00 | 0.01 | 0.01 | 43 | 991.1 |
| 20260505171506 | 82 | 207 | 5.2 | 7.0 | 0.00 | 0.01 | 0.01 | 44 | 991.5 |
| 20260505164505 | 81 | 207 | 5.2 | 7.0 | 0.00 | 0.01 | 0.01 | 46 | 991.8 |
| 20260505163008 | 80 | 207 | 5.2 | 7.0 | 0.00 | 0.01 | 0.01 | 48 | 992.0 |
| 20260505161505 | 79 | 207 | 5.2 | 7.0 | 0.00 | 0.01 | 0.01 | 51 | 992.2 |
| 20260505153006 | 77 | 207 | 5.2 | 7.0 | 0.00 | 0.01 | 0.01 | 50 | 992.7 |
| 20260505151505 | 76 | 207 | 5.2 | 7.0 | 0.00 | 0.01 | 0.01 | 50 | 992.7 |